Location: Giffers
(46.7623°N, 7.2085°E)
Time: 06:43:06
(UTC+00:00)

Daily predictions for brighter satellites

Satellite Brightness Start Highest point End
(mag) Time Altitude Azimuth Time Altitude Azimuth Time Altitude Azimuth
Cosmos 2100 Rocket 4.4 19:57:17 10° N 20:03:32 53° ENE 20:09:39 10° SSE
USA 81 4.1 19:59:13 10° N 20:04:32 79° E 20:09:47 10° S
ERS-2 3.5 20:01:58 10° N 20:05:28 44° WNW 20:08:57 10° SW
ARIANE 5 R/B 3.8 20:01:52 10° SE 20:05:46 31° ENE 20:09:43 10° N
Meteor 2-20 Rocket 4.5 19:59:44 10° S 20:05:47 69° E 20:11:50 10° NNE
Cosmos 1315 Rocket 3.8 20:02:17 10° NNW 20:06:18 50° W 20:10:16 10° S
BREEZE-M DEB (TANK) 2.6 20:04:18 10° SW 20:06:32 40° SE 20:10:19 10° ENE
ATLAS 3B R/B 3.2 20:00:56 10° S 20:06:43 34° ESE 20:12:38 10° NE
Cosmos 1707 3.1 20:03:34 10° SSW 20:07:26 70° W 20:11:21 10° N
IGS 5A 3.5 20:04:42 10° SSE 20:08:52 88° WSW 20:13:04 10° NNW
NOSS 3-2 (C) 4.3 20:04:43 10° WSW 20:10:19 55° NW 20:16:51 10° NE
Cosmos 1461 2.9 20:06:47 10° NW 20:11:01 81° SW 20:15:02 10° SSE
ATLAS CENTAUR R/B 2.1 20:09:26 10° NNW 20:13:37 48° NE 20:18:02 10° ESE
Cosmos 2173 Rocket 4.2 20:10:13 10° N 20:16:34 61° ENE 20:22:51 10° SSE
SL-8 R/B 3.9 20:12:41 10° WNW 20:17:27 62° SSW 20:22:10 10° SE
Cosmos 1452 Rocket 3.9 20:14:03 10° SSW 20:19:19 72° WNW 20:24:37 10° NNE
SL-4 R/B 3.7 20:18:25 10° SSE 20:20:26 13° SE 20:22:22 10° ESE
Cosmos 2219 Rocket 3.0 20:17:53 10° SSE 20:22:49 32° ESE 20:27:47 10° NE
Cosmos 2333 Rocket 2.8 20:18:50 10° S 20:24:04 38° ESE 20:29:20 10° NE
FALCON 9 DEB 3.4 20:22:59 10° SSW 20:25:52 35° SE 20:28:46 10° ENE
Cosmos 1850 Rocket 4.5 20:22:21 10° NNW 20:27:36 61° WSW 20:32:45 10° S
ERS-1 Rocket 3.6 20:24:11 10° SE 20:28:53 42° ENE 20:33:38 10° N
Cosmos 1025 Rocket 3.3 20:24:47 10° SSE 20:29:01 50° E 20:33:14 10° NNE
Lacrosse 5 rocket 0.9 20:25:52 10° SW 20:29:34 82° SE 20:33:11 10° NE
Cosmos 1844 3.7 20:24:58 10° NNW 20:30:35 85° ENE 20:36:02 11° SSE
Spot 2 Rocket 3.6 20:28:37 10° SSE 20:33:37 66° ENE 20:38:41 10° N
Cosmos 1725 Rocket 4.4 20:28:53 10° N 20:34:52 48° ENE 20:40:27 12° SSE
Cosmos 1727 Rocket 4.4 20:28:36 10° SSW 20:34:53 71° W 20:41:10 10° N
Cosmos 1331 Rocket 4.0 20:31:10 10° SSW 20:36:23 77° ESE 20:41:42 10° NNE
Cosmos 1900 4.3 20:34:35 10° NW 20:39:30 84° WSW 20:43:50 13° SSE
DNEPR-1 R/B 3.7 20:35:33 10° NNW 20:39:46 66° NE 20:43:36 13° SE
FALCON 9 DEB 2.7 20:38:23 10° SW 20:41:27 66° SSE 20:44:32 10° ENE
KORONAS-FOTON 4.2 20:39:29 10° SSW 20:43:14 64° W 20:47:01 10° N
CENTAUR R/B 4.4 20:37:32 10° W 20:43:21 38° NNW 20:50:10 10° NE
CARTOSAT-1 3.6 20:40:17 12° SSE 20:44:18 75° ENE 20:48:38 10° N
Cosmos 2237 Rocket 3.9 20:41:58 11° ESE 20:44:19 14° E 20:47:09 10° ENE
Terra 2.6 20:41:19 13° SE 20:45:14 40° ENE 20:49:41 10° N
SL-14 R/B 3.7 20:41:31 11° SSE 20:45:15 47° E 20:49:07 10° NNE
SPOT 1/Viking Rocket 3.8 20:41:12 10° S 20:46:18 70° WSW 20:51:27 10° NNW
Cosmos 2360 Rocket 2.5 20:41:21 10° SSW 20:46:59 72° WNW 20:52:38 10° NNE
Cosmos 1674 3.3 20:43:39 10° SSW 20:47:17 56° W 20:50:57 10° N
CZ-2C R/B 4.0 20:43:26 10° NNE 20:48:14 78° WNW 20:53:00 10° SSW
FALCON 9 DEB 2.8 20:46:20 10° SW 20:49:24 60° SSE 20:52:30 10° ENE
Cosmos 2322 Rocket 3.6 20:45:53 10° SW 20:51:17 43° NW 20:56:44 10° NNE
SL-16 R/B 4.0 20:46:19 10° WSW 20:51:27 35° NW 20:56:38 10° NNE
Cosmos 1953 3.1 20:47:43 10° NNW 20:51:41 52° W 20:55:37 10° S
FALCON 9 DEB 2.7 20:48:54 10° SW 20:52:00 76° SSE 20:55:07 10° ENE
SPOT 5 3.0 20:48:16 13° SSE 20:52:41 66° ENE 20:57:29 10° N
USA 245 4.4 20:48:29 10° S 20:53:29 69° W 20:59:28 10° NNW
Cosmos 1975 Rocket 4.0 20:50:19 10° SSW 20:54:32 48° WNW 20:58:50 10° N
Meteor 1-24 Rocket 4.3 20:51:24 14° SSE 20:55:34 38° E 21:00:38 10° NNE
Cosmos 1802 Rocket 4.1 20:49:25 10° N 20:55:45 89° WSW 21:01:57 11° S
Cosmos 1459 Rocket 4.2 20:51:07 10° NNW 20:57:09 72° W 21:03:11 10° S
H-2A R/B 4.5 20:54:04 10° NE 20:57:38 28° E 20:59:52 18° SE
Cosmos 1302 Rocket 4.1 20:52:35 10° S 20:57:44 60° ESE 21:02:55 10° NNE
Cosmos 1300 2.8 21:00:00 10° N 21:03:47 63° E 21:06:19 19° SSE
Resurs 01 Rocket 3.7 21:02:04 10° SSW 21:05:35 23° W 21:09:08 10° NW
Cosmos 1340 2.7 21:07:27 10° SSW 21:11:09 82° W 21:14:57 10° N
Cosmos 2322 3.7 21:08:57 10° SSW 21:14:36 89° WNW 21:20:19 10° NNE
COSMOS 2428 2.7 21:10:38 10° SSW 21:16:19 67° ESE 21:22:02 10° NNE
Cosmos 2278 Rocket 2.9 21:11:15 10° NNW 21:16:43 46° NE 21:20:55 17° SE
Cosmos 1844 Rocket 3.9 21:12:26 10° NW 21:17:34 36° WSW 21:22:30 11° S
NOSS 0 Rocket 4.4 21:17:59 16° S 21:22:25 40° ESE 21:28:11 10° NE
Cosmos 389 Rocket 3.2 21:19:35 10° N 21:22:49 37° ENE 21:24:17 25° SE
Cosmos 1867 3.6 21:19:38 10° NW 21:25:09 79° NE 21:28:54 21° SE
Cosmos 968 Rocket 3.4 21:25:03 10° NNW 21:30:12 86° WSW 21:33:29 23° SSE
Cosmos 1626 4.0 21:31:01 10° SW 21:34:14 28° WNW 21:37:29 10° NNW
Cosmos 1486 Rocket 4.0 21:30:27 10° NNW 21:35:42 82° ENE 21:38:52 24° SSE
SJ 16-02 3.9 21:35:28 10° NNE 21:36:50 11° NE 21:38:12 10° ENE
Cosmos 2123 Rocket 4.4 21:30:36 10° SSW 21:36:51 65° WNW 21:43:10 10° N
Meteor 2-10 Rocket 3.4 21:34:34 10° N 21:39:40 79° E 21:42:36 25° SSE
Cosmos 1606 Rocket 3.8 21:35:53 10° N 21:40:19 58° ENE 21:42:32 27° SSE
Uosat 12 SS-18 rocket 4.2 21:36:39 10° SW 21:41:00 88° WNW 21:46:06 10° NE
Cosmos 2233 Rocket 4.0 21:35:03 10° N 21:41:14 85° W 21:45:35 21° S
Cosmos 1992 Rocket 4.0 21:37:59 19° S 21:41:35 61° ESE 21:46:46 10° NNE
Cosmos 1943 Rocket 4.2 21:38:04 10° N 21:41:54 19° NE 21:45:45 10° E
ARIANE 5 R/B 4.1 21:38:34 12° SSW 21:42:10 31° W 21:46:11 10° NNW
Cosmos 1892 Rocket 4.3 21:43:59 26° SE 21:45:43 38° E 21:49:50 10° NNE
Cosmos 1346 Rocket 2.7 21:47:04 27° S 21:49:09 80° E 21:53:12 10° NNE
Cosmos 1447 Rocket 4.4 21:44:53 20° S 21:49:25 79° E 21:55:37 10° N
Cosmos 1354 Rocket 4.4 21:46:41 10° NNW 21:51:58 58° ENE 21:55:00 25° SE
ATLAS CENTAUR R/B 3.1 21:48:42 10° WNW 21:52:19 25° WSW 21:54:30 18° SSW
Cosmos 1980 3.9 21:51:14 23° S 21:54:39 55° ESE 22:00:12 10° NE
BREEZE-M DEB (TANK) 3.5 21:44:29 10° SW 21:56:02 50° SSE 21:59:34 10° E
ATLAS 3B R/B 3.3 21:50:37 10° WSW 21:57:05 58° NW 22:03:49 10° NE
SL-4 R/B 1.8 21:55:24 10° SW 21:59:29 61° SSE 22:03:16 10° ENE
ALOS 2 4.1 21:57:54 17° ESE 22:00:06 26° ENE 22:03:44 10° N
FALCON 9 DEB 4.2 21:58:32 10° W 22:01:33 42° NNW 22:04:34 10° NE
Cosmos 2219 Rocket 3.2 22:01:09 10° SW 22:06:36 45° NW 22:12:03 10° NNE
Cosmos 2333 Rocket 3.5 22:02:58 10° WSW 22:08:20 40° NW 22:13:42 10° NNE
Lacrosse 5 rocket 3.6 22:06:00 10° WNW 22:09:00 24° NNW 22:11:58 10° NE
Cosmos 1607 4.0 22:02:41 10° NW 22:09:09 89° ENE 22:12:53 27° SE
Cosmos 1703 4.1 22:08:43 31° ESE 22:09:34 35° E 22:13:11 10° NNE
Cosmos 2228 3.5 22:07:42 10° NNW 22:12:00 54° W 22:14:06 28° SSW
Iridium 2 3.5 22:12:19 41° S 22:13:31 86° E 22:17:18 10° N
Meteor 2-1 Rocket 4.3 22:14:00 10° N 22:19:31 68° ENE 22:22:14 31° SSE
USA 215 3.3 22:13:32 10° ENE 22:19:56 54° SE 22:25:28 14° SSW
Terra 3.4 22:20:12 15° SW 22:23:06 26° W 22:27:05 10° NW
COBE Rocket 4.2 22:22:10 30° SE 22:24:26 58° ENE 22:29:16 10° N
SL-16 R/B 3.1 22:23:55 27° SE 22:25:34 33° ESE 22:30:34 10° NE
Cosmos 2237 Rocket 2.1 22:23:45 22° SSW 22:27:31 89° ESE 22:33:11 10° NNE
Cosmos 1455 2.3 22:25:09 10° NNW 22:28:57 65° W 22:29:59 43° SSW
Cosmos 1184 Rocket 2.6 22:29:49 63° SSW 22:30:16 85° W 22:33:31 10° N
Cosmos 1464 Rocket 4.0 22:24:38 10° N 22:31:03 87° E 22:34:26 30° S
Cosmos 1328 4.5 22:31:00 35° ESE 22:31:38 38° E 22:35:16 10° NNE
Cosmos 1503 Rocket 4.4 22:30:25 10° NNW 22:35:41 55° WSW 22:37:58 32° SSW
Cosmos 192 4.3 22:33:48 31° SSW 22:36:12 89° ESE 22:41:10 10° NNE
Cosmos 2369 Rocket 4.0 22:31:32 10° N 22:36:13 25° NE 22:40:52 10° ESE
GEOS 3 Rocket 3.6 22:38:08 30° SE 22:40:55 89° SW 22:46:18 10° NW
ATLAS CENTAUR R/B 3.3 22:40:44 27° SSW 22:43:40 66° SE 22:55:48 10° NE
Cosmos 1816 Rocket 4.5 22:47:50 33° SSE 22:50:42 68° E 22:56:47 10° NNE
USA 32 4.5 22:46:06 10° N 22:51:14 52° E 22:53:23 32° SE
USA 267 3.5 22:47:29 10° ESE 22:54:00 71° NNE 23:00:31 10° NW
Okean 1-7 Rocket 3.7 22:54:15 39° SSW 22:55:51 72° W 23:00:18 10° N
Cosmos 1812 Rocket 4.0 22:53:45 10° N 22:58:02 52° ENE 22:59:21 37° SE
BREEZE-M DEB (TANK) 3.3 22:56:28 10° W 22:59:54 66° N 23:09:57 10° E
Cosmos 2278 Rocket 3.3 22:55:41 10° NW 23:00:37 31° WSW 23:02:45 24° SW
Cosmos 2058 Rocket 3.9 22:58:50 10° NNW 23:02:59 40° W 23:04:24 31° SW
Cosmos 2297 3.7 22:57:46 10° NNW 23:03:26 76° ENE 23:06:10 32° SE
Cosmos 2034 Rocket 4.0 23:01:00 10° NNW 23:07:09 73° W 23:10:01 33° S
NOSS 2-3 (C) 4.1 23:07:22 38° SE 23:07:36 38° ESE 23:11:56 10° NE
Thor Agena Rocket 4.1 23:03:05 10° NNE 23:08:07 44° E 23:09:46 34° SE
SAR-Lupe-2 3.7 23:05:44 10° NNE 23:09:17 57° ESE 23:09:33 55° ESE
SJ 16-02 1.3 23:11:48 10° NNW 23:16:12 79° ENE 23:17:28 46° SSE
Cosmos 1174 4.4 23:14:18 34° SSW 23:16:46 77° ESE 23:21:28 10° NE
Cosmos 1777 Rocket 4.4 23:16:05 10° NNW 23:21:13 52° WSW 23:22:57 37° SSW
Meteor 1-11 4.2 23:19:57 38° S 23:22:13 79° E 23:27:49 10° NNE
Meteor 1-27 4.4 23:19:09 10° N 23:24:41 63° ENE 23:27:14 32° SE
GP-B 3.1 23:20:21 10° N 23:24:49 74° E 23:26:01 47° SSE
Cosmos 1825 Rocket 4.2 23:25:14 36° SE 23:26:21 44° E 23:30:35 10° NNE
Meteor 1-4 Rocket 3.1 23:23:09 10° NNW 23:26:27 42° W 23:26:36 41° WSW
Cosmos 1943 Rocket 2.1 23:20:55 10° NNW 23:26:28 89° NE 23:28:53 35° SSE
Nimbus 7 Rocket 4.4 23:20:48 10° NNE 23:26:54 88° ESE 23:29:47 34° SSW
Cosmos 1892 3.4 23:30:16 37° ESE 23:30:51 40° E 23:34:30 10° NNE
MTI 3.9 23:29:27 10° N 23:32:27 59° WNW 23:32:27 59° WNW
ALOS 2 3.5 23:35:17 32° SW 23:36:17 36° W 23:40:21 10° NNW
Cosmos 1869 3.9 23:33:00 10° N 23:37:01 51° ENE 23:38:08 39° SE
Tsikada Rocket 4.1 23:34:13 31° SSW 23:37:16 68° W 23:43:26 10° N
CZ-2D R/B 4.4 23:35:55 10° ENE 23:37:34 11° E 23:39:14 10° ESE
Cosmos 1943 4.3 23:36:45 26° SE 23:38:29 31° ESE 23:43:22 10° NE
SL-4 R/B 2.9 23:35:22 10° W 23:39:11 46° NNW 23:42:44 10° ENE
Cosmos 990 Rocket 4.3 23:35:03 10° NNW 23:40:12 60° ENE 23:42:50 28° SE
Lacrosse 4 Rocket 4.1 23:37:55 10° N 23:40:24 15° NE 23:42:52 10° ENE
USA 229 DEB 3.6 23:38:46 34° S 23:41:34 62° ESE 23:48:17 10° NE
USA 229 3.7 23:38:53 34° S 23:41:41 61° ESE 23:48:23 10° NE
EO 1 Del DPAF 4.0 23:38:44 10° NNE 23:42:12 36° E 23:42:38 35° ESE
NOSS 8 (F) 4.3 23:43:54 63° E 23:43:54 63° E 23:46:35 10° NE
Cosmos 1603 4.5 23:46:12 30° SE 23:48:05 38° ESE 23:53:17 10° NE
Lacrosse 5 rocket 4.2 23:46:46 10° NW 23:49:06 16° N 23:51:26 10° NE
NOSS 3-1 (C) 3.3 23:46:44 28° SW 23:49:43 81° NW 23:56:06 10° NE
Cosmos 1953 Rocket 4.0 23:50:42 40° SE 23:51:52 52° E 23:56:10 10° NNE
SL-16 R/B 4.3 23:47:52 10° ESE 23:52:52 27° ENE 23:57:52 10° N
Cosmos 1408 2.7 23:53:09 54° SE 23:53:38 60° E 23:57:17 10° NNE
Cosmos 1825 3.1 23:54:28 32° ESE 23:55:09 35° E 23:58:37 10° NNE
